Flag for Israel Weather past 2 weeks in Rishon LeZion, Israel

Now
70 °F

Clear.


Feels Like: 70 °F
Forecast: 61 / 78 °F
Wind: 3 mph from North

Location: Ben Gurion International Airport

Current Time: May 6, 2015 at 9:31:05 PM

Latest Report: May 6, 2015 at 8:50 PM


Visibility: 10 mi

Pressure: 29.80 "Hg

Humidity: 69%

Dew point: 59 °F

Location of Rishon LeZionLocation

Historic Weather in Rishon LeZion — Graph

°F

Rishon LeZion temperature yesterday

Maximum temperature yesterday: 73 °F (at 10:20 AM)
Minimum temperature yesterday: 61 °F (at 4:20 AM)
Average temperature yesterday: 68 °F

Past Weeks' High & Low Weather Summary

 TemperatureHumidityPressure
High91 °F (Apr 29, 4:50 PM)88% (Apr 22, 1:20 AM)30.24 "Hg (Apr 22, 1:20 AM)
Low50 °F (Apr 25, 4:20 AM)20% (Apr 27, 3:20 PM)29.77 "Hg (May 6, 1:50 PM)
Average68 °F60%29.97 "Hg
* Reported Apr 21 8:20 PM — May 6 8:20 PM, Rishon LeZion, Weather by CustomWeather, © 2015

Note: Actual official high and low records may vary slightly from our data, if they occured in-between our weather recording intervals... More about our weather records

Advertising

Rishon LeZion weather history for previous 24 hours

 ConditionsComfort  
Time TempWeatherWind HumidityBarometerVisibility
8:20 PM
Wed, May 6
70 °FSunny.8 mph64%29.80 "Hg10 mi
7:50 PM72 °FSunny.10 mph57%29.80 "Hg10 mi
7:20 PM72 °FSunny.12 mph57%29.77 "Hg10 mi
6:50 PM73 °FSunny.12 mph53%29.77 "Hg10 mi
6:20 PM73 °FSunny.12 mph53%29.77 "Hg10 mi
5:50 PM75 °FSunny.12 mph54%29.77 "Hg10 mi
5:20 PM75 °FSunny.13 mph54%29.77 "Hg10 mi
4:50 PM77 °FSunny.14 mph51%29.77 "Hg10 mi
4:20 PM77 °FSunny.13 mph51%29.77 "Hg10 mi
3:50 PM77 °FSunny.14 mph54%29.77 "Hg10 mi
3:20 PM77 °FSunny.14 mph57%29.77 "Hg10 mi
2:50 PM77 °FSunny.12 mph57%29.77 "Hg10 mi
2:20 PM77 °FPassing clouds.12 mph57%29.77 "HgN/A
1:50 PM77 °FSunny.10 mph57%29.77 "Hg10 mi
1:20 PM77 °FSunny.12 mph57%29.80 "Hg10 mi
12:50 PM77 °FPassing clouds.12 mph57%29.80 "HgN/A
12:20 PM75 °FSunny.13 mph61%29.80 "Hg10 mi
11:50 AM77 °FSunny.10 mph57%29.83 "Hg10 mi
11:20 AM77 °FSunny.9 mph57%29.83 "Hg10 mi
10:50 AM75 °FSunny.6 mph54%29.83 "Hg10 mi
10:20 AM75 °FSunny.6 mph54%29.83 "Hg10 mi
9:50 AM73 °FSunny.3 mph61%29.83 "Hg10 mi
9:20 AM70 °FPassing clouds.6 mph64%29.83 "HgN/A
8:50 AM70 °FPassing clouds.7 mph64%29.83 "HgN/A
8:20 AM68 °FScattered clouds.6 mph69%29.83 "Hg6 mi
7:50 AM66 °FPartly sunny.3 mph73%29.83 "Hg4 mi
7:20 AM66 °FPartly sunny.5 mph73%29.83 "Hg3 mi
6:50 AM64 °FPartly sunny.3 mph78%29.83 "Hg3 mi
6:20 AM64 °FPassing clouds.3 mph78%29.83 "Hg4 mi
5:50 AM64 °FPassing clouds.2 mph78%29.80 "HgN/A
5:20 AM64 °FPassing clouds.3 mph78%29.80 "HgN/A
4:50 AM66 °FPassing clouds.3 mph73%29.80 "HgN/A
4:20 AM66 °FPassing clouds.6 mph73%29.80 "HgN/A
3:50 AM66 °FPassing clouds.6 mph73%29.80 "HgN/A
3:20 AM66 °FPassing clouds.6 mph73%29.83 "HgN/A
2:50 AM66 °FPassing clouds.5 mph78%29.83 "HgN/A
2:20 AM66 °FPassing clouds.5 mph78%29.83 "HgN/A
1:50 AM66 °FPassing clouds.1 mph78%29.83 "HgN/A
1:20 AM66 °FPassing clouds.3 mph78%29.83 "HgN/A
12:50 AM66 °FPassing clouds.No wind83%29.86 "HgN/A
12:20 AM66 °FPassing clouds.2 mph83%29.86 "HgN/A
11:50 PM
Tue, May 5
66 °FPassing clouds.3 mph78%29.86 "HgN/A
11:20 PM66 °FPassing clouds.2 mph83%29.86 "HgN/A
10:50 PM66 °FPassing clouds.3 mph83%29.86 "HgN/A
10:20 PM66 °FPassing clouds.5 mph83%29.86 "HgN/A
9:50 PM66 °FPassing clouds.7 mph83%29.86 "HgN/A
9:20 PM68 °FPassing clouds.6 mph78%29.86 "HgN/A
Weather by CustomWeather, © 2015

See weather overviewHow to use our weather pages